Location: Apeadero de Los Molinos-Guadarrama
(40.7091°N, 4.0689°W)
Time: 13:37:32
(UTC+00:00)

ARIANE 5 R/B - Pass Details

Date: 14 May 2021
Orbit: 620 x 656 km, 98.1° (Epoch: 13 June)

Event Time Altitude Azimuth Distance (km) Brightness Sun altitude
Exits shadow 22:01:37 48° 222° (SW) 814 3.0 -23.1°
Maximum altitude 22:02:20 55° 259° (W) 752 3.0 -23.2°
Drops below altitude 10° 22:06:36 10° 338° (NNW) 1,995 6.2 -23.6°
Sets 22:08:50 0° 343° (NNW) 2,908 7.3 -23.9°
